SCP
-0 -0 -0 -0 0 0 0 0 0 0 0 0 0 0 0 0 0 0 0 0 0 0 0 0 0 0 0 0 0 0 0 0 0 0 0 0 0 0 0 0 0 0 0 0
-0 -0 -0 -0 0 0 0 0 0 0 0 0 0 0 0 0 0 0 0 0 0 0 0 0 0 0 0 0 0 0 0 0 0 0 0 0 0 0 0 0 0 0 0 0
-0 -0 -0 -0 -0 0 0 0 0 0 0 0 0 -0 -0 0 0 0 0 0 0 0 0 0 0 0 0 0 0 0 0 0 0 0 0 0 0 0 0 0 0 0 0 0
-0 0 0 -0 0 0 0 0 0 0 0 0 0 -0 -0 -0 0 0 0 0 0 0 0 0 0 0 0 0 0 0 0 0 0 0 0 0 0 0 0 0 0 0 0 0
0 0 0 0 0 0 0 0 0 0 0 0 0 0 -0 -0 -0 0 0 0 0 0 -0 0 0 0 0 0 0 0 0 0 0 0 0 0 0 0 0 0 0 0 0 0
0 0 0 0 0 0 0 0 0 0 0 0 0 0 0 0 0 0 0 0 0 0 0 0 0 0 0 0 0 0 0 0 0 0 0 0 0 0 0 0 0 0 0 0
0 0 0 0 -0 -0 0 0 -0 0 0 0 0 0 0 0 -0 -0 0 0 0 0 0 0 0 0 0 0 0 0 0 0 0 0 0 0 0 0 0 0 0 0 0 0
0 0 0 0 0 0 0 0 -0 0 0 -0 -0 -0 -0 0 -0 -0 -0 0 -0 0 0 0 0 0 0 0 0 0 0 0 0 0 0 0 0 0 0 0 0 0 0 0
0 0 0 -0 0 0 0 0 0 0 0 0 0 0 0 0 0 0 -0 0 0 0 -0 0 0 0 0 0 0 0 0 0 0 0 0 0 0 0 0 0 0 0 0 0
0 0 0 0 0 0 0 -0 0 -0 0 0 0 0 0 -0 0 0 0 0 0 0 0 0 0 0 0 0 0 0 0 0 0 0 0 0 0 0 0 0 0 0 0 0
0 0 0 0 0 0 0 -0 -0 -0 -0 0 0 0 0 0 -0 0 0 -0 0 0 0 0 0 0 0 0 0 0 0 0 0 0 0 0 0 0 0 0 0 0 0 0
0 0 0 0 -0 0 0 -0 -0 -0 0 0 0 0 0 -0 -0 -0 -0 -0 -0 0 0 0 0 0 0 0 0 0 0 0 0 0 0 0 0 0 0 0 0 0 0 0
0 0 0 -0 -0 -0 0 -0 0 0 0 0 -0 0 -0 -0 -0 -0 -0 -0 -0 0 0 0 0 0 0 0 0 0 0 0 0 0 0 0 0 0 0 0 0 0 0 0
0 0 0 0 0 -0 -0 -0 -0 0 0 0 0 0 -0 0 0 0 -0 -0 0 0 0 0 0 0 0 0 0 0 0 0 0 0 0 0 0 0 0 0 0 0 0 0
0 0 0 0 -0 -0 -0 -0 -0 0 -0 -0 0 0 0 0 0 -0 -0 -0 0 0 0 0 0 0 0 0 0 0 0 0 0 0 0 0 0 0 0 0 0 0 0 0
0 0 0 0 -0 0 -0 -0 0 -0 0 0 0 0 0 0 0 -0 -0 -0 -0 0 0 0 0 0 0 0 0 0 0 0 0 0 0 0 0 0 0 0 0 0 0 0
0 0 0 0 0 -0 -0 0 0 0 0 0 0 0 0 0 0 -0 -0 -0 -0 -0 0 0 0 0 0 0 0 0 0 0 0 0 0 0 0 0 0 0 0 0 0 0
0 0 -0 -0 -0 -0 -0 0 0 0 0 0 0 0 0 0 0 0 -0 0 -0 -0 0 0 0 0 0 0 0 0 0 0 0 0 0 0 0 0 0 0 0 0 0 0
0 0 -0 -0 0 -0 -0 -0 0 0 0 0 0 -0 -0 0 0 0 0 0 0 0 0 0 0 0 0 0 0 0 0 0 0 0 0 0 0 0 0 0 0 0 0 0
0 0 -0 -0 -0 -0 -0 -0 0 0 0 0 0 -0 -0 0 0 0 0 0 0 0 0 0 0 0 0 0 0 0 0 0 0 0 0 0 -0 -0 -0 -0 0 0 0 0
0 0 -0 0 -0 -0 -0 -0 0 -0 0 -0 0 0 0 0 0 0 0 0 0 0 0 0 0 0 0 0 0 0 0 0 -0 -0 0 -0 -0 -0 -0 -0 0 0 0 0
-0 0 -0 0 -0 -0 -0 -0 -0 0 0 0 -0 0 -0 -0 0 0 0 0 0 0 0 0 0 0 0 0 0 0 0 -0 -0 -0 -0 -0 -0 -0 -0 -0 0 0 0 0
0 -0 -0 -0 -0 0 0 0 -0 0 0 0 0 0 0 0 0 0 0 0 0 0 0 0 0 0 0 0 -0 0 -0 -0 -0 -0 -0 -0 -0 -0 0 0 0 0 0 0
0 0 0 0 0 0 0 -0 -0 -0 0 0 0 0 0 0 0 0 0 0 0 0 0 0 0 0 0 0 -0 0 0 -0 -0 -0 -0 -0 -0 0 0 0 0 0 0 0
0 0 -0 -0 -0 0 0 -0 0 -0 0 0 0 0 0 0 0 0 0 0 0 0 -0 -0 0 0 0 0 0 0 0 -0 -0 -0 -0 0 0 0 0 0 0 0 0 0
0 -0 -0 -0 -0 0 -0 0 -0 -0 -0 0 0 0 0 0 0 0 0 -0 -0 -0 -0 0 0 -0 0 0 0 -0 -0 -0 -0 -0 0 0 0 0 0 0 0 0 0 0
Wind_Speed_500mb
8 8 6 12 7 11 14 17 21 26 26 25 32 48 39 36 57 47 51 55 55 58 36 79 85 77 73 88 82 84 82 85 84 78 78 76 73 71 68 65 60 60 56 56
13 1 4 12 12 13 18 24 23 18 19 25 27 51 45 39 50 65 62 61 58 60 66 43 82 91 85 95 92 86 82 82 91 85 82 81 78 76 67 64 61 60 60 56
3 15 23 10 15 17 17 18 19 24 23 24 23 27 8 15 27 54 67 76 68 60 61 52 41 86 88 95 94 89 86 86 94 86 87 82 81 78 75 69 65 66 57 53
11 12 11 15 20 8 11 11 21 27 22 5 11 19 14 24 27 19 46 55 64 64 75 72 48 57 86 91 90 90 89 90 85 88 91 90 89 92 86 76 72 67 63 58
14 15 17 21 9 7 16 23 21 33 29 12 21 7 12 22 18 23 15 36 55 62 74 87 62 53 65 82 89 87 90 86 85 98 96 94 92 90 84 77 76 71 65 59
24 35 7 8 6 16 24 12 38 18 6 5 7 11 13 8 9 31 35 39 36 38 52 73 71 60 67 75 89 86 88 83 83 97 101 95 94 92 87 83 78 72 66 60
19 14 10 13 22 13 14 10 7 10 1 11 6 6 23 23 18 12 24 45 53 49 50 28 65 64 72 76 91 91 87 85 85 90 98 95 93 81 81 78 80 75 67 61
9 19 15 20 7 11 8 3 5 8 6 18 22 12 8 4 12 29 48 57 60 73 62 52 37 16 73 80 85 93 85 82 86 91 100 97 91 79 81 78 80 76 70 65
9 11 14 33 10 4 9 8 9 10 6 7 7 13 11 27 34 46 52 60 61 64 70 65 61 47 26 84 93 90 86 87 95 98 103 101 93 84 78 79 81 78 70 64
6 17 15 13 19 4 8 2 7 5 9 10 11 12 8 30 37 31 42 55 66 64 65 75 65 58 37 72 86 88 91 92 100 106 106 97 90 82 75 82 81 76 68 63
8 9 16 15 6 21 7 7 6 7 9 7 12 11 6 22 29 34 38 60 64 62 65 65 69 53 41 61 85 84 84 87 98 111 106 99 89 82 77 76 73 69 68 65
4 8 14 21 35 21 8 6 10 8 9 13 16 15 8 37 33 42 50 60 64 55 55 58 57 42 34 58 85 86 87 87 95 101 97 95 87 80 77 71 74 71 72 70
6 6 11 21 11 6 9 23 17 22 16 8 9 14 33 47 41 69 60 66 56 48 44 41 29 22 50 70 81 85 84 94 102 97 99 93 87 80 78 79 79 76 64 55
6 6 11 14 29 29 30 42 42 22 9 11 14 39 54 44 51 57 67 65 51 36 27 12 11 28 49 62 72 77 79 84 90 90 87 84 79 84 89 89 80 62 66 63
4 8 8 27 37 37 37 39 35 24 4 6 28 41 40 43 42 39 60 54 40 24 12 8 21 31 42 56 60 64 66 72 75 83 83 92 102 101 93 78 72 72 64 55
6 8 10 24 13 12 29 29 17 13 8 13 29 29 35 64 45 55 59 44 35 26 16 18 28 36 48 54 57 60 63 70 75 85 96 101 97 91 78 78 75 66 59 49
6 7 9 11 20 29 6 7 14 18 11 11 17 30 35 49 30 56 56 43 37 33 28 30 40 52 60 68 68 78 83 89 95 105 107 93 79 84 84 73 65 59 54 48
5 7 4 9 15 8 9 4 8 12 24 16 14 29 39 45 47 56 58 45 47 45 47 45 54 66 73 78 85 93 93 102 104 98 87 84 84 82 75 66 59 54 49 42
15 4 7 2 3 15 9 7 7 3 13 8 18 29 50 58 25 40 57 48 46 47 52 59 68 79 87 93 99 106 103 93 83 80 83 79 76 76 68 59 53 48 41 36
15 17 3 7 2 7 8 9 14 16 8 24 29 30 43 43 24 17 47 46 50 51 57 66 73 83 90 96 95 90 80 77 83 81 74 67 64 63 60 54 47 42 34 30
4 5 17 8 7 15 14 21 9 7 10 46 36 33 42 18 16 27 32 38 38 43 50 59 68 78 80 73 65 73 76 73 69 69 66 62 57 55 50 48 41 35 29 24
14 10 8 4 6 14 5 9 6 7 36 37 42 42 38 28 28 33 36 34 34 35 37 43 54 59 54 56 62 66 64 65 63 62 60 57 53 50 47 39 35 29 22 19
6 12 6 16 11 9 8 13 11 25 26 27 30 30 32 24 26 30 33 31 30 32 36 40 47 50 48 47 43 57 60 57 58 59 58 54 50 46 38 31 26 21 20 17
9 18 8 5 7 5 12 6 20 21 18 22 19 21 21 23 26 30 31 32 28 28 31 36 41 44 47 52 41 47 55 53 53 53 51 49 46 44 33 21 18 17 18 14
15 13 9 11 26 44 53 46 26 7 9 16 17 18 17 16 19 22 25 24 25 26 29 30 34 42 48 45 41 43 44 43 43 44 45 45 39 30 22 21 20 14 12 11
25 13 13 12 19 6 3 11 8 3 6 13 12 11 11 13 18 19 22 22 22 24 26 27 30 32 36 37 39 42 39 33 30 37 38 34 26 17 15 13 16 14 10 7
Wind_Direction_500mb
328 52 350 315 312 288 290 290 287 282 282 282 283 286 290 283 285 280 276 279 279 279 280 244 232 231 216 211 217 210 207 209 209 207 205 201 198 196 201 200 205 208 209 212
7 306 308 332 324 326 311 299 295 284 299 293 291 284 282 270 263 268 271 271 271 276 274 293 235 221 216 208 215 218 216 209 207 210 208 206 196 197 204 199 204 211 209 213
255 262 298 307 329 329 301 290 295 302 319 301 310 291 276 292 270 265 258 260 258 260 268 272 241 218 217 208 212 218 216 209 209 207 206 203 199 201 201 203 208 206 212 212
284 295 329 331 312 312 300 300 318 313 327 297 33 291 296 278 285 282 261 257 254 254 256 259 256 236 223 213 210 220 218 212 212 205 209 208 205 204 204 206 209 209 210 210
263 294 305 312 270 356 258 291 297 291 281 316 285 239 289 295 287 272 268 268 267 256 251 257 243 237 232 222 205 214 221 213 208 208 215 210 213 211 212 211 208 210 208 211
257 283 254 229 313 298 283 323 301 286 223 269 224 178 266 282 266 352 341 352 341 352 286 258 248 235 231 227 208 210 219 216 207 211 218 213 217 215 214 212 206 204 206 210
316 317 309 38 332 332 15 354 319 346 330 221 323 262 256 295 359 2 339 341 337 337 331 328 260 229 228 225 214 210 217 216 210 214 218 214 221 222 222 217 209 206 204 203
336 337 353 350 275 273 329 82 240 285 280 288 283 233 235 47 355 352 358 341 332 330 328 315 307 313 237 224 224 212 214 219 215 214 214 216 219 221 218 216 209 207 205 199
331 270 310 304 284 351 276 299 258 276 250 258 251 285 267 8 354 357 342 330 324 320 317 309 301 289 274 232 226 221 216 212 216 215 215 215 214 217 213 210 207 204 199 192
278 298 272 293 318 352 138 287 318 316 302 291 283 276 260 346 337 341 334 329 322 316 311 308 301 290 270 227 224 225 221 210 205 211 213 209 210 207 210 208 203 197 187 171
294 203 293 346 294 303 322 330 352 264 248 284 320 283 61 351 338 335 326 325 316 309 308 307 303 295 258 218 219 209 201 208 202 206 206 207 202 201 207 202 194 180 164 156
350 299 288 283 292 276 208 198 8 278 319 273 267 277 121 353 337 329 321 316 312 306 307 303 305 298 240 213 203 205 202 205 205 201 202 197 200 193 192 182 163 155 149 141
331 318 319 334 356 18 330 314 302 297 268 243 336 285 338 329 328 329 320 320 316 311 309 307 287 190 191 180 184 187 192 195 192 200 198 189 185 183 166 154 148 145 140 135
97 246 198 247 276 305 298 301 304 298 265 313 277 311 315 327 327 326 328 325 324 316 312 300 187 156 169 168 167 172 179 185 180 178 173 169 156 152 146 148 143 141 135 123
42 262 223 255 264 278 277 284 297 314 4 316 312 307 309 321 320 326 329 330 340 339 345 115 136 144 153 157 160 167 167 166 162 153 148 145 146 143 139 137 138 131 122 134
332 276 296 296 259 228 286 286 285 307 288 286 312 311 326 320 327 348 343 351 7 22 47 103 127 133 132 139 139 145 143 145 147 144 138 138 137 131 135 136 128 132 134 136
292 299 336 272 313 313 349 290 336 306 269 296 333 312 317 326 343 359 350 6 23 49 74 99 119 126 129 134 139 137 140 142 140 136 134 135 136 134 132 127 135 132 140 142
245 308 261 279 334 12 258 27 302 299 283 270 293 326 329 324 327 6 15 17 39 61 76 96 115 125 128 131 134 134 134 136 132 131 133 134 136 127 128 137 141 138 138 137
220 274 289 325 241 283 302 342 334 333 289 56 336 339 338 334 343 15 25 49 68 80 92 100 112 120 126 130 132 130 131 129 127 131 132 136 130 135 137 135 137 138 135 132
200 226 159 350 16 248 258 290 327 130 290 17 7 351 345 353 17 8 21 50 67 84 101 110 117 122 125 126 128 128 129 131 131 135 133 136 133 130 133 136 136 132 138 137
214 238 233 242 268 285 261 308 120 42 292 339 354 3 351 7 9 360 42 56 65 84 98 112 116 120 126 129 127 126 129 128 132 132 132 132 132 132 134 136 140 136 133 130
177 168 209 182 222 275 261 340 14 309 323 335 344 352 359 14 31 39 48 64 72 86 107 116 122 125 128 127 125 125 130 129 132 133 131 134 138 138 137 138 130 129 134 134
256 202 203 188 218 247 280 292 297 328 327 336 341 350 358 22 44 56 61 67 81 94 107 117 125 129 131 129 125 131 128 134 136 137 137 138 136 132 130 135 130 138 135 132
252 220 228 23 300 276 5 285 323 330 350 347 348 358 8 27 40 54 62 71 88 101 115 123 127 132 133 128 134 136 137 144 144 141 141 140 142 139 135 127 125 146 139 128
215 161 189 266 280 278 278 280 277 299 9 12 4 9 28 54 65 67 74 79 89 111 120 128 132 133 135 136 140 137 138 141 142 142 143 148 149 143 135 139 140 130 111 96
191 197 195 220 224 206 179 169 200 216 348 7 11 19 45 71 87 88 90 90 99 112 128 138 139 140 140 144 150 145 144 147 149 149 149 150 153 152 149 149 157 147 125 95
Wind_Speed_850mb
8 8 6 12 7 11 14 17 21 26 26 25 32 48 39 36 57 47 51 55 55 58 36 79 85 77 73 88 82 84 82 85 84 78 78 76 73 71 68 65 60 60 56 56
13 1 4 12 12 13 18 24 23 18 19 25 27 51 45 39 50 65 62 61 58 60 66 43 82 91 85 95 92 86 82 82 91 85 82 81 78 76 67 64 61 60 60 56
3 15 23 10 15 17 17 18 19 24 23 24 23 27 8 15 27 54 67 76 68 60 61 52 41 86 88 95 94 89 86 86 94 86 87 82 81 78 75 69 65 66 57 53
11 12 11 15 20 8 11 11 21 27 22 5 11 19 14 24 27 19 46 55 64 64 75 72 48 57 86 91 90 90 89 90 85 88 91 90 89 92 86 76 72 67 63 58
14 15 17 21 9 7 16 23 21 33 29 12 21 7 12 22 18 23 15 36 55 62 74 87 62 53 65 82 89 87 90 86 85 98 96 94 92 90 84 77 76 71 65 59
24 35 7 8 6 16 24 12 38 18 6 5 7 11 13 8 9 31 35 39 36 38 52 73 71 60 67 75 89 86 88 83 83 97 101 95 94 92 87 83 78 72 66 60
19 14 10 13 22 13 14 10 7 10 1 11 6 6 23 23 18 12 24 45 53 49 50 28 65 64 72 76 91 91 87 85 85 90 98 95 93 81 81 78 80 75 67 61
9 19 15 20 7 11 8 3 5 8 6 18 22 12 8 4 12 29 48 57 60 73 62 52 37 16 73 80 85 93 85 82 86 91 100 97 91 79 81 78 80 76 70 65
9 11 14 33 10 4 9 8 9 10 6 7 7 13 11 27 34 46 52 60 61 64 70 65 61 47 26 84 93 90 86 87 95 98 103 101 93 84 78 79 81 78 70 64
6 17 15 13 19 4 8 2 7 5 9 10 11 12 8 30 37 31 42 55 66 64 65 75 65 58 37 72 86 88 91 92 100 106 106 97 90 82 75 82 81 76 68 63
8 9 16 15 6 21 7 7 6 7 9 7 12 11 6 22 29 34 38 60 64 62 65 65 69 53 41 61 85 84 84 87 98 111 106 99 89 82 77 76 73 69 68 65
4 8 14 21 35 21 8 6 10 8 9 13 16 15 8 37 33 42 50 60 64 55 55 58 57 42 34 58 85 86 87 87 95 101 97 95 87 80 77 71 74 71 72 70
6 6 11 21 11 6 9 23 17 22 16 8 9 14 33 47 41 69 60 66 56 48 44 41 29 22 50 70 81 85 84 94 102 97 99 93 87 80 78 79 79 76 64 55
6 6 11 14 29 29 30 42 42 22 9 11 14 39 54 44 51 57 67 65 51 36 27 12 11 28 49 62 72 77 79 84 90 90 87 84 79 84 89 89 80 62 66 63
4 8 8 27 37 37 37 39 35 24 4 6 28 41 40 43 42 39 60 54 40 24 12 8 21 31 42 56 60 64 66 72 75 83 83 92 102 101 93 78 72 72 64 55
6 8 10 24 13 12 29 29 17 13 8 13 29 29 35 64 45 55 59 44 35 26 16 18 28 36 48 54 57 60 63 70 75 85 96 101 97 91 78 78 75 66 59 49
6 7 9 11 20 29 6 7 14 18 11 11 17 30 35 49 30 56 56 43 37 33 28 30 40 52 60 68 68 78 83 89 95 105 107 93 79 84 84 73 65 59 54 48
5 7 4 9 15 8 9 4 8 12 24 16 14 29 39 45 47 56 58 45 47 45 47 45 54 66 73 78 85 93 93 102 104 98 87 84 84 82 75 66 59 54 49 42
15 4 7 2 3 15 9 7 7 3 13 8 18 29 50 58 25 40 57 48 46 47 52 59 68 79 87 93 99 106 103 93 83 80 83 79 76 76 68 59 53 48 41 36
15 17 3 7 2 7 8 9 14 16 8 24 29 30 43 43 24 17 47 46 50 51 57 66 73 83 90 96 95 90 80 77 83 81 74 67 64 63 60 54 47 42 34 30
4 5 17 8 7 15 14 21 9 7 10 46 36 33 42 18 16 27 32 38 38 43 50 59 68 78 80 73 65 73 76 73 69 69 66 62 57 55 50 48 41 35 29 24
14 10 8 4 6 14 5 9 6 7 36 37 42 42 38 28 28 33 36 34 34 35 37 43 54 59 54 56 62 66 64 65 63 62 60 57 53 50 47 39 35 29 22 19
6 12 6 16 11 9 8 13 11 25 26 27 30 30 32 24 26 30 33 31 30 32 36 40 47 50 48 47 43 57 60 57 58 59 58 54 50 46 38 31 26 21 20 17
9 18 8 5 7 5 12 6 20 21 18 22 19 21 21 23 26 30 31 32 28 28 31 36 41 44 47 52 41 47 55 53 53 53 51 49 46 44 33 21 18 17 18 14
15 13 9 11 26 44 53 46 26 7 9 16 17 18 17 16 19 22 25 24 25 26 29 30 34 42 48 45 41 43 44 43 43 44 45 45 39 30 22 21 20 14 12 11
25 13 13 12 19 6 3 11 8 3 6 13 12 11 11 13 18 19 22 22 22 24 26 27 30 32 36 37 39 42 39 33 30 37 38 34 26 17 15 13 16 14 10 7
Wind_Direction_850mb
328 52 350 315 312 288 290 290 287 282 282 282 283 286 290 283 285 280 276 279 279 279 280 244 232 231 216 211 217 210 207 209 209 207 205 201 198 196 201 200 205 208 209 212
7 306 308 332 324 326 311 299 295 284 299 293 291 284 282 270 263 268 271 271 271 276 274 293 235 221 216 208 215 218 216 209 207 210 208 206 196 197 204 199 204 211 209 213
255 262 298 307 329 329 301 290 295 302 319 301 310 291 276 292 270 265 258 260 258 260 268 272 241 218 217 208 212 218 216 209 209 207 206 203 199 201 201 203 208 206 212 212
284 295 329 331 312 312 300 300 318 313 327 297 33 291 296 278 285 282 261 257 254 254 256 259 256 236 223 213 210 220 218 212 212 205 209 208 205 204 204 206 209 209 210 210
263 294 305 312 270 356 258 291 297 291 281 316 285 239 289 295 287 272 268 268 267 256 251 257 243 237 232 222 205 214 221 213 208 208 215 210 213 211 212 211 208 210 208 211
257 283 254 229 313 298 283 323 301 286 223 269 224 178 266 282 266 352 341 352 341 352 286 258 248 235 231 227 208 210 219 216 207 211 218 213 217 215 214 212 206 204 206 210
316 317 309 38 332 332 15 354 319 346 330 221 323 262 256 295 359 2 339 341 337 337 331 328 260 229 228 225 214 210 217 216 210 214 218 214 221 222 222 217 209 206 204 203
336 337 353 350 275 273 329 82 240 285 280 288 283 233 235 47 355 352 358 341 332 330 328 315 307 313 237 224 224 212 214 219 215 214 214 216 219 221 218 216 209 207 205 199
331 270 310 304 284 351 276 299 258 276 250 258 251 285 267 8 354 357 342 330 324 320 317 309 301 289 274 232 226 221 216 212 216 215 215 215 214 217 213 210 207 204 199 192
278 298 272 293 318 352 138 287 318 316 302 291 283 276 260 346 337 341 334 329 322 316 311 308 301 290 270 227 224 225 221 210 205 211 213 209 210 207 210 208 203 197 187 171
294 203 293 346 294 303 322 330 352 264 248 284 320 283 61 351 338 335 326 325 316 309 308 307 303 295 258 218 219 209 201 208 202 206 206 207 202 201 207 202 194 180 164 156
350 299 288 283 292 276 208 198 8 278 319 273 267 277 121 353 337 329 321 316 312 306 307 303 305 298 240 213 203 205 202 205 205 201 202 197 200 193 192 182 163 155 149 141
331 318 319 334 356 18 330 314 302 297 268 243 336 285 338 329 328 329 320 320 316 311 309 307 287 190 191 180 184 187 192 195 192 200 198 189 185 183 166 154 148 145 140 135
97 246 198 247 276 305 298 301 304 298 265 313 277 311 315 327 327 326 328 325 324 316 312 300 187 156 169 168 167 172 179 185 180 178 173 169 156 152 146 148 143 141 135 123
42 262 223 255 264 278 277 284 297 314 4 316 312 307 309 321 320 326 329 330 340 339 345 115 136 144 153 157 160 167 167 166 162 153 148 145 146 143 139 137 138 131 122 134
332 276 296 296 259 228 286 286 285 307 288 286 312 311 326 320 327 348 343 351 7 22 47 103 127 133 132 139 139 145 143 145 147 144 138 138 137 131 135 136 128 132 134 136
292 299 336 272 313 313 349 290 336 306 269 296 333 312 317 326 343 359 350 6 23 49 74 99 119 126 129 134 139 137 140 142 140 136 134 135 136 134 132 127 135 132 140 142
245 308 261 279 334 12 258 27 302 299 283 270 293 326 329 324 327 6 15 17 39 61 76 96 115 125 128 131 134 134 134 136 132 131 133 134 136 127 128 137 141 138 138 137
220 274 289 325 241 283 302 342 334 333 289 56 336 339 338 334 343 15 25 49 68 80 92 100 112 120 126 130 132 130 131 129 127 131 132 136 130 135 137 135 137 138 135 132
200 226 159 350 16 248 258 290 327 130 290 17 7 351 345 353 17 8 21 50 67 84 101 110 117 122 125 126 128 128 129 131 131 135 133 136 133 130 133 136 136 132 138 137
214 238 233 242 268 285 261 308 120 42 292 339 354 3 351 7 9 360 42 56 65 84 98 112 116 120 126 129 127 126 129 128 132 132 132 132 132 132 134 136 140 136 133 130
177 168 209 182 222 275 261 340 14 309 323 335 344 352 359 14 31 39 48 64 72 86 107 116 122 125 128 127 125 125 130 129 132 133 131 134 138 138 137 138 130 129 134 134
256 202 203 188 218 247 280 292 297 328 327 336 341 350 358 22 44 56 61 67 81 94 107 117 125 129 131 129 125 131 128 134 136 137 137 138 136 132 130 135 130 138 135 132
252 220 228 23 300 276 5 285 323 330 350 347 348 358 8 27 40 54 62 71 88 101 115 123 127 132 133 128 134 136 137 144 144 141 141 140 142 139 135 127 125 146 139 128
215 161 189 266 280 278 278 280 277 299 9 12 4 9 28 54 65 67 74 79 89 111 120 128 132 133 135 136 140 137 138 141 142 142 143 148 149 143 135 139 140 130 111 96
191 197 195 220 224 206 179 169 200 216 348 7 11 19 45 71 87 88 90 90 99 112 128 138 139 140 140 144 150 145 144 147 149 149 149 150 153 152 149 149 157 147 125 95